COSMOS 1455

Last updated on Wed Jul 02 2025 00:02:13 GMT+0000 (Coordinated Universal Time)

1 14032U 83037A 25182.63123879 .00098239 00000+0 46465-3 0 9996 2 14032 82.4916 29.7020 0003980 41.9313 318.2260 15.82705282308714
UTC large
Height (km)
Speed (km/s)
/
Latitude / Longitude
Inclination (degrees)
Orbital Period (minutes)
Azimuth
Elevation
Range (km)
Doppler Factor

Next 0 passes for location: London (51.5072 / 0.1276)

Sorry there are no passes over London.